TimeMDT,TemperatureF,Dew PointF,Humidity,Sea Level PressureIn,VisibilityMPH,Wind Direction,Wind SpeedMPH,Gust SpeedMPH,PrecipitationIn,Events,Conditions,WindDirDegrees,DateUTC
12:53 AM,54.0,42.1,64,29.77,10.0,South,9.2,-,N/A,,Clear,190,2012-10-03 06:53:00
1:53 AM,52.0,42.1,69,29.77,10.0,SSW,9.2,-,N/A,,Clear,200,2012-10-03 07:53:00
2:53 AM,50.0,42.1,74,29.76,10.0,SSW,9.2,-,N/A,,Clear,200,2012-10-03 08:53:00
3:53 AM,50.0,42.1,74,29.75,10.0,SSW,8.1,-,N/A,,Clear,200,2012-10-03 09:53:00
4:53 AM,48.9,41.0,74,29.76,10.0,South,5.8,-,N/A,,Clear,170,2012-10-03 10:53:00
5:53 AM,48.0,39.9,74,29.77,10.0,SSW,5.8,-,N/A,,Clear,200,2012-10-03 11:53:00
6:53 AM,50.0,39.0,66,29.78,10.0,SW,9.2,-,N/A,,Clear,220,2012-10-03 12:53:00
7:53 AM,57.0,37.9,49,29.78,10.0,WSW,6.9,-,N/A,,Clear,240,2012-10-03 13:53:00
8:53 AM,68.0,37.9,33,29.78,10.0,WNW,10.4,-,N/A,,Clear,300,2012-10-03 14:53:00
9:53 AM,81.0,30.0,16,29.74,10.0,Variable,5.8,-,N/A,,Clear,0,2012-10-03 15:53:00
10:53 AM,86.0,23.0,10,29.72,10.0,North,11.5,-,N/A,,Clear,10,2012-10-03 16:53:00
11:53 AM,86.0,23.0,10,29.72,10.0,Variable,6.9,-,N/A,,Clear,0,2012-10-03 17:53:00
12:53 PM,87.1,23.0,10,29.69,10.0,Variable,6.9,18.4,N/A,,Clear,0,2012-10-03 18:53:00
1:53 PM,87.1,21.0,9,29.68,10.0,Variable,3.5,-,N/A,,Clear,0,2012-10-03 19:53:00
2:53 PM,88.0,21.0,9,29.68,10.0,West,4.6,-,N/A,,Clear,270,2012-10-03 20:53:00
3:53 PM,87.1,21.9,9,29.68,10.0,South,3.5,-,N/A,,Clear,170,2012-10-03 21:53:00
4:53 PM,84.9,21.9,10,29.70,10.0,Calm,Calm,-,N/A,,Clear,0,2012-10-03 22:53:00
5:53 PM,82.9,33.1,17,29.71,10.0,SSE,10.4,-,N/A,,Clear,160,2012-10-03 23:53:00
6:53 PM,75.0,32.0,21,29.80,7.0,North,25.3,41.4,N/A,,Clear,10,2012-10-04 00:53:00
7:01 PM,73.4,33.8,23,29.89,9.0,North,27.6,38.0,N/A,,Partly Cloudy,10,2012-10-04 01:01:00
7:53 PM,64.9,35.1,33,29.89,10.0,North,27.6,36.8,N/A,,Clear,10,2012-10-04 01:53:00
8:53 PM,57.9,35.1,42,29.98,10.0,North,24.2,31.1,N/A,,Clear,360,2012-10-04 02:53:00
9:53 PM,52.0,35.1,53,30.03,10.0,North,29.9,40.3,N/A,,Clear,10,2012-10-04 03:53:00
10:53 PM,48.9,34.0,56,30.09,10.0,North,26.5,40.3,N/A,,Clear,360,2012-10-04 04:53:00
11:53 PM,45.0,34.0,65,30.14,10.0,North,23.0,28.8,N/A,,Clear,350,2012-10-04 05:53:00